| time (UTC) | temp F | wind direction | speed knots | gust knots | rain 1hr in | rain 24hr in | rain mn in | humidity % | barometer mb |
| 20260507031516 | 53 | 293 | 1.7 | 4.3 | 0.00 | 1.30 | 0.00 | 88 | 1013.1 |
| 20260507030517 | 52 | 293 | 0.9 | 3.5 | 0.00 | 1.34 | 0.00 | 88 | 1013.1 |
| 20260507025516 | 53 | 0 | 0.9 | 3.5 | 0.00 | 1.44 | 0.00 | 87 | 1013.3 |
| 20260507024516 | 53 | 0 | 1.7 | 3.5 | 0.00 | 1.47 | 0.00 | 87 | 1013.4 |
| 20260507023516 | 53 | 23 | 0.9 | 4.3 | 0.00 | 1.60 | 0.00 | 87 | 1013.3 |
| 20260507022516 | 53 | 0.0 | 1.7 | 0.00 | 1.65 | 0.00 | 87 | 1013.3 | |
| 20260507021516 | 53 | 293 | 1.7 | 3.5 | 0.00 | 1.66 | 0.00 | 87 | 1013.4 |
| 20260507020536 | 53 | 293 | 1.7 | 3.5 | 0.00 | 1.66 | 0.00 | 87 | 1013.3 |
| 20260507015536 | 53 | 293 | 1.7 | 4.3 | 0.00 | 1.66 | 0.00 | 87 | 1013.4 |
| 20260507014536 | 54 | 293 | 1.7 | 4.3 | 0.00 | 1.66 | 0.00 | 86 | 1013.1 |
| 20260507013515 | 54 | 293 | 1.7 | 4.3 | 0.00 | 1.66 | 0.00 | 86 | 1013.2 |
| 20260507012516 | 54 | 293 | 1.7 | 4.3 | 0.00 | 1.67 | 0.00 | 86 | 1013.3 |
| 20260507011516 | 54 | 23 | 1.7 | 3.5 | 0.00 | 1.70 | 0.00 | 86 | 1013.3 |
| 20260507010536 | 54 | 293 | 1.7 | 3.5 | 0.00 | 1.80 | 0.00 | 87 | 1013.4 |
| 20260507005515 | 54 | 293 | 0.9 | 3.5 | 0.00 | 1.87 | 0.00 | 87 | 1013.3 |
| 20260507004515 | 54 | 293 | 0.9 | 3.5 | 0.00 | 1.91 | 0.00 | 87 | 1013.3 |
| 20260507003536 | 54 | 293 | 1.7 | 4.3 | 0.00 | 1.92 | 0.00 | 87 | 1013.2 |
| 20260507002516 | 54 | 293 | 1.7 | 4.3 | 0.00 | 1.92 | 0.00 | 87 | 1013.3 |
| 20260507001516 | 55 | 293 | 1.7 | 4.3 | 0.00 | 1.96 | 0.00 | 86 | 1013.3 |
| 20260507000515 | 55 | 293 | 1.7 | 4.3 | 0.00 | 2.04 | 0.00 | 87 | 1013.4 |
| 20260506235515 | 55 | 23 | 1.7 | 3.5 | 0.00 | 2.08 | 0.00 | 87 | 1013.4 |
| 20260506234515 | 56 | 23 | 1.7 | 3.5 | 0.00 | 2.15 | 0.00 | 87 | 1013.4 |
| 20260506233536 | 56 | 23 | 1.7 | 4.3 | 0.00 | 2.16 | 0.00 | 87 | 1013.5 |
| 20260506232536 | 56 | 293 | 1.7 | 3.5 | 0.00 | 2.19 | 0.00 | 87 | 1013.4 |
| 20260506231516 | 56 | 0 | 1.7 | 4.3 | 0.00 | 2.24 | 0.00 | 86 | 1013.3 |
| 20260506230516 | 56 | 23 | 1.7 | 4.3 | 0.00 | 2.28 | 0.00 | 86 | 1013.3 |
| 20260506225516 | 56 | 23 | 0.9 | 5.2 | 0.00 | 2.30 | 0.00 | 85 | 1013.3 |
| 20260506224516 | 56 | 0 | 2.6 | 4.3 | 0.00 | 2.30 | 0.00 | 85 | 1013.2 |
| 20260506223517 | 57 | 293 | 1.7 | 4.3 | 0.00 | 2.30 | 0.00 | 85 | 1013.1 |
| 20260506222516 | 57 | 293 | 1.7 | 3.5 | 0.00 | 2.30 | 0.00 | 85 | 1013.2 |
| 20260506221516 | 57 | 293 | 1.7 | 4.3 | 0.00 | 2.30 | 0.00 | 84 | 1013.1 |
| 20260506220516 | 58 | 293 | 2.6 | 4.3 | 0.00 | 2.30 | 0.00 | 84 | 1013.1 |
| 20260506215516 | 58 | 293 | 0.9 | 3.5 | 0.00 | 2.30 | 2.30 | 83 | 1013.1 |
| 20260506214516 | 58 | 293 | 2.6 | 5.2 | 0.00 | 2.30 | 2.30 | 84 | 1013.0 |
| 20260506214016 | 58 | 293 | 3.5 | 6.1 | 0.00 | 2.30 | 2.30 | 84 | 1013.0 |
| 20260506213016 | 58 | 293 | 2.6 | 4.3 | 0.00 | 2.30 | 2.30 | 84 | 1013.0 |
| 20260506212016 | 58 | 293 | 1.7 | 5.2 | 0.00 | 2.30 | 2.30 | 85 | 1012.9 |
| 20260506211016 | 58 | 293 | 2.6 | 5.2 | 0.00 | 2.30 | 2.30 | 85 | 1012.9 |
| 20260506210016 | 58 | 293 | 0.9 | 3.5 | 0.00 | 2.31 | 2.30 | 85 | 1012.9 |
| 20260506205016 | 58 | 270 | 0.9 | 4.3 | 0.00 | 2.31 | 2.30 | 86 | 1012.7 |
| 20260506204016 | 59 | 293 | 0.9 | 4.3 | 0.00 | 2.31 | 2.30 | 86 | 1012.6 |
| 20260506203016 | 59 | 293 | 1.7 | 3.5 | 0.00 | 2.31 | 2.30 | 86 | 1012.6 |
| 20260506202036 | 59 | 293 | 1.7 | 4.3 | 0.00 | 2.31 | 2.30 | 86 | 1012.6 |
| 20260506201016 | 59 | 293 | 0.9 | 3.5 | 0.00 | 2.31 | 2.30 | 86 | 1012.6 |
| 20260506200016 | 60 | 293 | 1.7 | 3.5 | 0.00 | 2.31 | 2.30 | 86 | 1012.4 |
| 20260506195057 | 60 | 293 | 1.7 | 3.5 | 0.00 | 2.31 | 2.30 | 86 | 1012.2 |
| 20260506194017 | 60 | 293 | 1.7 | 3.5 | 0.00 | 2.31 | 2.30 | 87 | 1012.1 |
| 20260506193016 | 60 | 293 | 1.7 | 3.5 | 0.00 | 2.31 | 2.30 | 87 | 1012.0 |
| 20260506192037 | 60 | 293 | 0.9 | 3.5 | 0.00 | 2.35 | 2.30 | 87 | 1011.8 |
| 20260506191016 | 61 | 293 | 0.9 | 2.6 | 0.00 | 2.35 | 2.30 | 87 | 1011.7 |
| 20260506190116 | 61 | 0.0 | 1.7 | 0.00 | 2.35 | 2.30 | 87 | 1011.5 | |
| 20260506185016 | 61 | 0.0 | 0.9 | 0.00 | 2.35 | 2.30 | 87 | 1011.3 | |
| 20260506184016 | 61 | 0.0 | 0.0 | 0.00 | 2.35 | 2.30 | 86 | 1011.3 | |
| 20260506183036 | 62 | 0.0 | 0.0 | 0.00 | 2.35 | 2.30 | 85 | 1011.1 | |
| 20260506182016 | 62 | 0.0 | 0.0 | 0.00 | 2.35 | 2.30 | 84 | 1011.1 | |
| 20260506181037 | 62 | 0.0 | 0.9 | 0.00 | 2.35 | 2.30 | 84 | 1011.0 | |
| 20260506180016 | 63 | 0.0 | 1.7 | 0.00 | 2.35 | 2.30 | 83 | 1010.9 | |
| 20260506175016 | 63 | 0.0 | 2.6 | 0.00 | 2.35 | 2.30 | 81 | 1010.7 | |
| 20260506174016 | 63 | 0.0 | 4.3 | 0.00 | 2.35 | 2.30 | 81 | 1010.7 | |
| 20260506173016 | 64 | 293 | 0.9 | 3.5 | 0.00 | 2.35 | 2.30 | 80 | 1010.6 |
| 20260506172036 | 64 | 0.0 | 0.9 | 0.00 | 2.35 | 2.30 | 80 | 1010.7 | |
| 20260506171017 | 64 | 0.0 | 2.6 | 0.00 | 2.35 | 2.30 | 79 | 1010.8 | |
| 20260506170017 | 64 | 0.0 | 0.9 | 0.00 | 2.35 | 2.30 | 80 | 1010.8 | |
| 20260506165016 | 64 | 0.0 | 2.6 | 0.00 | 2.35 | 2.30 | 79 | 1010.8 | |
| 20260506164016 | 64 | 270 | 0.9 | 4.3 | 0.00 | 2.35 | 2.30 | 78 | 1010.6 |
| 20260506163016 | 64 | 0 | 0.9 | 4.3 | 0.00 | 2.35 | 2.30 | 77 | 1010.7 |
| 20260506162016 | 65 | 293 | 0.9 | 3.5 | 0.00 | 2.35 | 2.30 | 75 | 1010.8 |
| 20260506161016 | 65 | 23 | 1.7 | 5.2 | 0.00 | 2.35 | 2.30 | 74 | 1010.7 |
| 20260506160116 | 66 | 293 | 2.6 | 7.8 | 0.00 | 2.35 | 2.30 | 70 | 1010.6 |
| 20260506155037 | 67 | 293 | 0.9 | 5.2 | 0.00 | 2.35 | 2.30 | 72 | 1010.7 |
| 20260506154016 | 67 | 293 | 0.9 | 4.3 | 0.00 | 2.35 | 2.30 | 71 | 1010.7 |
| 20260506153036 | 66 | 203 | 1.7 | 7.0 | 0.00 | 2.35 | 2.30 | 73 | 1010.7 |
| 20260506152036 | 67 | 270 | 1.7 | 5.2 | 0.00 | 2.35 | 2.30 | 72 | 1010.8 |
| 20260506151016 | 67 | 270 | 1.7 | 5.2 | 0.00 | 2.35 | 2.30 | 70 | 1010.8 |
| 20260506150016 | 67 | 270 | 2.6 | 7.8 | 0.00 | 2.35 | 2.30 | 70 | 1010.7 |
| 20260506145017 | 67 | 293 | 1.7 | 7.8 | 0.00 | 2.35 | 2.30 | 71 | 1010.6 |
| 20260506144016 | 67 | 293 | 2.6 | 4.3 | 0.00 | 2.35 | 2.30 | 72 | 1010.5 |
| 20260506143016 | 69 | 270 | 2.6 | 9.6 | 0.00 | 2.35 | 2.30 | 72 | 1010.4 |
| 20260506142036 | 68 | 23 | 1.7 | 5.2 | 0.00 | 2.35 | 2.30 | 76 | 1010.4 |
| 20260506141016 | 67 | 270 | 1.7 | 8.7 | 0.00 | 2.35 | 2.30 | 76 | 1010.6 |
| 20260506140036 | 68 | 248 | 2.6 | 7.8 | 0.00 | 2.35 | 2.30 | 76 | 1010.4 |
| 20260506135017 | 68 | 270 | 3.5 | 9.6 | 0.00 | 2.35 | 2.30 | 76 | 1010.5 |
| 20260506134017 | 67 | 293 | 3.5 | 7.8 | 0.00 | 2.35 | 2.30 | 78 | 1010.7 |
| 20260506133036 | 67 | 0 | 2.6 | 8.7 | 0.00 | 2.35 | 2.30 | 80 | 1010.7 |
| 20260506132037 | 66 | 180 | 0.9 | 3.5 | 0.00 | 2.37 | 2.30 | 81 | 1010.8 |
| 20260506131016 | 67 | 270 | 1.7 | 7.0 | 0.00 | 2.38 | 2.30 | 79 | 1010.8 |
| 20260506130016 | 68 | 293 | 1.7 | 6.1 | 0.00 | 2.38 | 2.30 | 79 | 1010.9 |
| 20260506125016 | 68 | 158 | 1.7 | 5.2 | 0.00 | 2.38 | 2.30 | 80 | 1010.8 |
| 20260506124016 | 67 | 293 | 2.6 | 6.1 | 0.00 | 2.40 | 2.30 | 82 | 1010.8 |
| 20260506123016 | 67 | 23 | 1.7 | 5.2 | 0.00 | 2.40 | 2.30 | 81 | 1010.7 |
| 20260506122016 | 66 | 293 | 2.6 | 6.1 | 0.00 | 2.40 | 2.30 | 82 | 1010.7 |
| 20260506121016 | 67 | 23 | 2.6 | 9.6 | 0.00 | 2.40 | 2.30 | 80 | 1010.6 |
| 20260506120016 | 66 | 23 | 2.6 | 6.1 | 0.00 | 2.40 | 2.30 | 80 | 1010.6 |
| 20260506115017 | 68 | 180 | 5.2 | 13.0 | 0.00 | 2.46 | 2.30 | 79 | 1010.4 |
| 20260506114036 | 69 | 180 | 5.2 | 10.4 | 0.00 | 2.51 | 2.30 | 78 | 1010.3 |
| 20260506113016 | 69 | 158 | 2.6 | 5.2 | 0.00 | 2.56 | 2.30 | 83 | 1010.3 |
| 20260506112016 | 67 | 180 | 3.5 | 10.4 | 0.00 | 2.56 | 2.30 | 84 | 1010.4 |
| 20260506111016 | 68 | 180 | 4.3 | 10.4 | 0.00 | 2.56 | 2.30 | 82 | 1010.4 |
| 20260506110016 | 69 | 180 | 3.5 | 7.0 | 0.00 | 2.57 | 2.30 | 82 | 1010.5 |
| 20260506105016 | 69 | 158 | 6.1 | 15.6 | 0.00 | 2.60 | 2.30 | 81 | 1010.2 |
| 20260506104016 | 69 | 180 | 6.1 | 13.0 | 0.00 | 2.61 | 2.30 | 83 | 1010.4 |
| 20260506103016 | 68 | 135 | 3.5 | 7.8 | 0.00 | 2.62 | 2.30 | 86 | 1010.5 |
| 20260506102016 | 67 | 180 | 5.2 | 10.4 | 0.00 | 2.62 | 2.30 | 86 | 1010.6 |
| 20260506101016 | 66 | 180 | 5.2 | 12.2 | 0.00 | 2.62 | 2.30 | 89 | 1010.7 |
| 20260506100017 | 65 | 180 | 0.9 | 5.2 | 0.00 | 2.68 | 2.30 | 92 | 1010.8 |
| 20260506095016 | 64 | 135 | 1.7 | 4.3 | 0.00 | 2.84 | 2.30 | 93 | 1010.7 |
| 20260506094016 | 63 | 158 | 2.6 | 6.1 | 0.00 | 2.88 | 2.30 | 94 | 1010.8 |
| 20260506093017 | 62 | 158 | 1.7 | 5.2 | 0.00 | 2.91 | 2.30 | 94 | 1010.7 |
| 20260506092036 | 62 | 135 | 1.7 | 6.1 | 0.00 | 2.91 | 2.30 | 94 | 1010.6 |
| 20260506091016 | 61 | 158 | 1.7 | 4.3 | 0.00 | 2.91 | 2.30 | 95 | 1010.6 |
| 20260506090017 | 61 | 0.0 | 1.7 | 0.00 | 2.93 | 2.30 | 95 | 1010.7 | |
| 20260506085517 | 61 | 0.0 | 0.0 | 0.00 | 2.93 | 2.30 | 95 | 1010.7 | |
| 20260506084516 | 61 | 0.0 | 0.0 | 0.00 | 2.96 | 2.30 | 95 | 1010.7 | |
| 20260506083536 | 61 | 0.0 | 3.5 | 0.00 | 2.98 | 2.30 | 95 | 1010.7 | |
| 20260506082516 | 61 | 0.0 | 1.7 | 0.00 | 2.98 | 2.30 | 95 | 1010.8 | |
| 20260506081516 | 61 | 180 | 1.7 | 4.3 | 0.00 | 2.98 | 2.30 | 95 | 1010.7 |
| 20260506080517 | 61 | 0.0 | 1.7 | 0.00 | 2.98 | 2.30 | 95 | 1010.8 | |
| 20260506073515 | 60 | 135 | 1.7 | 5.2 | 0.02 | 3.06 | 2.30 | 95 | 1010.7 |
| 20260506072516 | 60 | 0.0 | 0.0 | 0.02 | 3.10 | 2.30 | 95 | 1010.6 | |
| 20260506071536 | 60 | 0.0 | 0.0 | 0.02 | 3.10 | 2.30 | 96 | 1010.6 | |
| 20260506070516 | 60 | 0.0 | 0.0 | 0.05 | 3.10 | 2.30 | 96 | 1010.6 | |
| 20260506062516 | 59 | 0.0 | 0.0 | 0.28 | 3.08 | 2.28 | 96 | 1010.6 | |
| 20260506061516 | 59 | 0.0 | 1.7 | 0.32 | 3.08 | 2.28 | 96 | 1010.5 | |
| 20260506060516 | 59 | 0.0 | 0.9 | 0.43 | 3.06 | 2.25 | 96 | 1010.4 | |
| 20260506050516 | 59 | 0.0 | 1.7 | 0.57 | 2.77 | 1.83 | 96 | 1010.6 | |
| 20260506044516 | 59 | 180 | 0.9 | 1.7 | 0.51 | 2.65 | 1.64 | 96 | 1010.4 |
| 20260506043515 | 59 | 293 | 1.7 | 6.1 | 0.45 | 2.62 | 1.54 | 96 | 1010.3 |
| 20260506042517 | 59 | 293 | 3.5 | 6.1 | 0.40 | 2.61 | 1.46 | 96 | 1010.2 |
| 20260506041516 | 59 | 293 | 0.9 | 3.5 | 0.35 | 2.63 | 1.35 | 96 | 1010.5 |
| 20260506040517 | 59 | 0 | 0.9 | 3.5 | 0.29 | 2.57 | 1.25 | 96 | 1010.5 |
| 20260506035516 | 59 | 0.0 | 3.5 | 0.35 | 2.55 | 1.20 | 96 | 1010.4 | |
| 20260506034516 | 59 | 0.0 | 0.9 | 0.30 | 2.48 | 1.13 | 96 | 1010.9 | |
| 20260506033516 | 59 | 23 | 0.9 | 3.5 | 0.39 | 2.44 | 1.09 | 96 | 1010.9 |
| 20260506032516 | 59 | 0.0 | 1.7 | 0.41 | 2.41 | 1.06 | 96 | 1011.0 |